Location: Grasslands National Park East Block
(49.0708°N, 106.5295°W)
Time: 23:58:50
(UTC-06:00)

Transit 2A - Visible Passes

Search period start: 14 September 2019 00:00
Search period end: 24 September 2019 00:00
Orbit: 598 x 961 km, 66.7° (Epoch: 13 September)

Date Brightness Start Highest point End Pass type
(mag) Time Alt. Az. Time Alt. Az. Time Alt. Az.
14 Sep 7.7 04:21:18 13° S 04:25:45 31° ESE 04:30:27 10° NE visible
14 Sep 6.3 06:03:05 10° SW 06:08:46 56° NW 06:13:56 10° NNE visible
15 Sep 8.1 03:48:49 15° SSE 03:51:47 22° ESE 03:55:55 10° ENE visible
15 Sep 6.1 05:29:20 13° SW 05:34:36 74° NW 05:39:52 10° NNE visible
16 Sep 8.4 03:16:14 14° SE 03:17:52 16° ESE 03:21:06 10° ENE visible
16 Sep 6.1 04:56:45 23° SSW 05:00:28 83° SE 05:05:45 10° NE visible
17 Sep 8.7 02:43:33 11° ESE 02:44:01 11° ESE 02:45:20 10° E visible
17 Sep 6.4 04:24:04 35° S 04:26:22 62° ESE 04:31:35 10° NE visible
17 Sep 7.0 06:04:52 10° WSW 06:09:52 32° NW 06:14:28 10° NNE visible
18 Sep 6.9 03:51:19 41° SE 03:52:19 45° ESE 03:57:21 10° NE visible
18 Sep 6.7 05:31:49 18° WSW 05:35:36 40° NW 05:40:28 10° NNE visible
19 Sep 7.4 03:18:30 32° ESE 03:18:30 32° ESE 03:23:02 10° NE visible
19 Sep 6.4 04:59:01 32° WSW 05:01:22 52° NW 05:06:26 10° NNE visible
20 Sep 8.0 02:45:37 22° E 02:45:37 22° E 02:48:32 10° ENE visible
20 Sep 6.1 04:26:08 56° WSW 04:27:11 70° NW 04:32:22 10° NNE visible
20 Sep 7.6 06:07:17 10° WNW 06:11:12 20° NNW 06:14:54 10° NNE visible
21 Sep 8.6 02:12:42 13° E 02:12:42 13° E 02:13:47 10° ENE visible
21 Sep 6.0 03:53:12 84° NE 03:53:12 84° NE 03:58:16 10° NE visible
21 Sep 7.4 05:33:42 15° W 05:36:49 24° NW 05:40:56 10° NNE visible
22 Sep 6.8 03:20:14 49° ENE 03:20:14 49° ENE 03:24:07 10° NE visible
22 Sep 7.1 05:00:44 25° WNW 05:02:29 30° NW 05:06:57 10° NNE visible
23 Sep 7.7 02:47:14 29° ENE 02:47:14 29° ENE 02:49:54 10° NE visible
23 Sep 6.8 04:27:44 37° NW 04:28:12 38° NW 04:32:57 10° NNE visible
23 Sep 8.1 06:10:15 10° NW 06:12:46 13° NNW 06:15:11 10° N visible
